Location: Loriani
(42.3687°N, 9.2981°E)
Time: 01:14:18
(UTC+00:00)

Daily predictions for brighter satellites

Satellite Brightness Start Highest point End
(mag) Time Altitude Azimuth Time Altitude Azimuth Time Altitude Azimuth
GEOS 3 Rocket 3.7 00:07:39 46° ESE 00:09:11 73° NE 00:14:27 10° NNW
Cosmos 1726 4.2 00:09:15 10° NNW 00:10:54 20° NW 00:10:54 20° NW
COSMOS 2455 2.7 00:11:40 63° SSW 00:12:42 88° WNW 00:18:46 10° NNE
Cosmos 2058 Rocket 3.4 00:09:21 10° N 00:13:43 59° E 00:13:46 59° E
Meteor 1-29 4.4 00:11:21 10° N 00:13:32 37° N 00:13:32 37° N
Cosmos 2228 3.4 00:12:00 10° NNW 00:15:32 54° NW 00:15:32 54° NW
SJ 16-02 4.2 00:15:14 10° NNE 00:17:02 12° NE 00:18:51 10° E
SL-14 R/B 3.9 00:18:39 52° NE 00:18:39 52° NE 00:21:50 10° NNE
IRAS Rocket 4.2 00:17:54 54° SE 00:19:11 79° ENE 00:24:47 10° NNW
Cosmos 1953 4.4 00:17:39 10° NW 00:19:26 18° WNW 00:19:26 18° WNW
Okean 1-7 Rocket 3.5 00:22:03 82° NE 00:22:03 82° NE 00:26:25 10° N
Cosmos 921 Rocket 3.6 00:23:34 46° E 00:23:34 46° E 00:27:25 10° NNE
Cosmos 1300 3.4 00:21:42 10° N 00:25:04 51° NE 00:25:04 51° NE
COSMOS 2487 4.3 00:25:41 10° NNW 00:27:18 24° NW 00:27:18 24° NW
Cosmos 1626 Rocket 4.3 00:29:36 40° ESE 00:29:52 41° E 00:33:55 10° NNE
Cosmos 1626 2.7 00:34:31 55° N 00:34:31 55° N 00:37:31 10° N
FALCON 9 R/B 3.3 00:38:25 42° SSW 00:40:31 54° SSE 00:59:54 10° E
Nadezhda 1 Rocket 4.2 00:36:59 10° N 00:43:08 68° E 00:45:52 35° SSE
MOZ.5/SAFIR/RUBIN 5/SL-8 3.9 00:44:15 52° SE 00:45:15 69° ENE 00:49:52 10° N
UNK 4.4 00:44:00 35° SE 00:45:33 51° ENE 00:50:02 10° N
Cosmos 220 Rocket 4.1 00:46:16 64° ESE 00:46:28 65° ESE 00:50:51 10° NNE
Cosmos 2297 Rocket 3.6 00:44:33 10° N 00:49:43 35° ENE 00:54:52 10° ESE
SL-4 R/B 2.8 00:49:12 42° W 00:50:34 59° NNW 00:55:17 10° NE
Cosmos 1437 4.1 00:52:48 35° N 00:52:48 35° N 00:54:42 10° N
Cosmos 1812 Rocket 4.5 00:48:37 10° N 00:52:55 44° ENE 00:54:29 31° SE
CZ-4B R/B 4.2 00:48:37 10° NNE 00:53:34 46° E 00:55:16 34° SE
ATLAS CENTAUR R/B 2.4 00:56:56 35° WNW 00:57:40 38° NW 01:01:36 10° NNE
SL-16 R/B 2.5 00:56:01 30° SSE 00:59:14 80° ENE 01:05:25 10° NNW
Cosmos 1777 Rocket 4.1 00:56:14 10° NNW 01:01:19 54° WSW 01:01:54 52° SW
FALCON 9 DEB 3.7 01:02:08 56° ENE 01:02:08 56° ENE 01:04:56 10° NE
BREEZE-M R/B 2.8 01:01:07 66° WSW 01:01:42 89° SSE 01:04:52 10° ENE
Timation 2 Rocket 3.8 00:55:27 10° NNW 01:01:47 78° WSW 01:04:30 35° SSE
Cosmos 1602 Rocket 3.5 01:01:58 62° SSE 01:02:34 74° E 01:06:53 10° NNE
STARLINK-29 3.8 01:04:34 47° N 01:04:34 47° N 01:07:16 10° NE
STARLINK-1368 4.5 01:06:14 32° ESE 01:06:14 32° ESE 01:08:42 10° ENE
STARLINK-1369 4.4 01:08:12 33° ESE 01:08:12 33° ESE 01:10:44 10° ENE
Cosmos 1455 3.7 01:04:26 10° NNE 01:07:51 32° ENE 01:09:22 23° ESE
BREEZE-M DEB (TANK) 4.4 01:09:30 16° ENE 01:09:30 16° ENE 01:10:04 10° ENE
ATLAS 3B R/B 2.7 01:02:18 10° NW 01:09:01 62° WSW 01:12:42 29° S
STARLINK-1372 4.2 01:10:25 36° ESE 01:10:25 36° ESE 01:13:06 10° ENE
STARLINK-1378 4.1 01:12:32 39° ESE 01:12:32 39° ESE 01:15:20 10° ENE
STARLINK-1329 4.1 01:12:59 39° ESE 01:12:59 39° ESE 01:15:50 10° ENE
IRS-1D 4.3 01:07:40 10° NNE 01:12:47 46° E 01:15:16 27° SSE
CENTAUR R/B 3.8 01:05:33 10° NW 01:12:50 35° WSW 01:14:47 31° SW
BREEZE-M DEB (TANK) 3.2 01:12:38 24° NNW 01:12:57 25° NNW 01:14:57 10° NE
STARLINK-1365 4.0 01:13:46 42° ESE 01:13:46 42° ESE 01:16:40 10° ENE
STARLINK-1379 4.0 01:14:39 41° ESE 01:14:39 41° ESE 01:17:34 10° ENE
GP-B 4.0 01:09:56 10° NNE 01:14:12 44° E 01:16:11 27° SE
STARLINK-1362 4.0 01:15:10 42° ESE 01:15:10 42° ESE 01:18:07 10° ENE
Cosmos 1745 Rocket 4.0 01:12:45 41° SSW 01:14:56 66° W 01:21:03 10° N
Meteor 2-1 Rocket 4.1 01:09:47 10° N 01:15:20 83° E 01:18:03 31° SSE
STARLINK-1373 3.8 01:17:22 45° ESE 01:17:22 45° ESE 01:20:25 10° ENE
Cosmos 1867 4.4 01:12:23 10° NW 01:16:44 31° WSW 01:16:44 31° WSW
Cosmos-2242 4.5 01:13:35 10° N 01:17:29 33° ENE 01:20:32 15° SE
STARLINK-1390 3.7 01:19:27 48° ESE 01:19:27 48° ESE 01:22:36 10° ENE
RESURS DK-1 3.2 01:19:17 35° W 01:19:57 38° WNW 01:23:51 10° N
Cosmos 2227 Rocket 2.8 01:19:52 10° NNW 01:25:29 57° ENE 01:31:03 10° SE
Cosmos 1356 Rocket 3.6 01:21:29 10° NNW 01:25:31 51° W 01:25:49 50° WSW
Cosmos 1763 Rocket 4.0 01:23:45 29° SSE 01:25:59 49° ESE 01:30:53 10° NNE
Cosmos 1697 Rocket 3.7 01:23:11 22° SSE 01:26:11 37° ESE 01:31:22 10° NE
Cosmos 1703 4.1 01:26:48 31° SE 01:28:12 45° E 01:32:00 10° NNE
CZ-2D R/B 2.1 01:23:08 10° N 01:28:21 66° WNW 01:30:15 39° SW
ATLAS 2AS CENTAUR R/B 4.3 01:23:17 11° W 01:30:01 32° NW 01:36:58 10° NNE
CZ-4C R/B 4.0 01:30:46 40° WSW 01:30:56 40° W 01:35:00 10° NNW
ADEOS II 2.7 01:25:58 10° NNE 01:31:06 51° E 01:34:07 24° SSE
STARLINK-1228 2.9 01:33:14 10° NW 01:36:36 83° SW 01:39:56 10° SE
STARLINK-1234 3.4 01:34:39 10° NW 01:41:18 - SE 01:37:02 48° WNW
Resurs 1-4 Rocket 2.4 01:32:56 10° N 01:38:04 53° WNW 01:40:11 33° SW
USA 81 4.1 01:36:19 36° SSW 01:38:25 67° W 01:43:41 10° N
STARLINK-1212 3.1 01:36:02 10° NW 01:39:09 69° NE 01:42:14 10° ESE
STARLINK-1105 3.0 01:36:31 10° NW 01:39:37 70° NE 01:42:41 10° ESE
STARLINK-1209 4.1 01:36:55 10° NW 01:44:32 - SE 01:38:42 30° WNW
STARLINK-1247 3.0 01:37:25 10° NW 01:40:33 72° NE 01:43:39 10° ESE
STARLINK-52 4.4 01:39:41 26° WNW 01:40:39 31° NNW 01:43:35 10° NE
Cosmos 1758 Rocket 3.4 01:39:23 39° S 01:40:57 89° E 01:45:19 10° N
STARLINK-1227 3.0 01:37:53 10° NW 01:40:59 72° NE 01:44:03 10° ESE
STARLINK-1226 3.0 01:38:44 10° NW 01:41:52 74° NE 01:44:57 10° ESE
STARLINK-1215 2.9 01:39:40 10° NW 01:42:48 76° NE 01:45:54 10° ESE
ARIANE 5 R/B 3.5 01:38:26 10° NNE 01:43:11 39° E 01:46:54 15° SSE
H-2A R/B 4.3 01:40:13 10° ESE 01:43:43 24° ENE 01:47:16 10° NNE
STARLINK-1217 2.9 01:41:26 10° NW 01:44:34 79° NE 01:47:40 10° ESE
STARLINK-1229 2.9 01:42:21 10° NW 01:45:29 80° NE 01:48:36 10° SE
NPP 3.9 01:40:16 10° N 01:45:31 54° WNW 01:47:57 30° SW
STARLINK-1270 2.8 01:43:14 10° NW 01:46:21 82° NE 01:49:28 10° SE
STARLINK-1189 2.8 01:45:04 10° NW 01:48:11 85° NE 01:51:18 10° SE
STARLINK-1188 2.8 01:45:56 10° NW 01:49:05 87° NE 01:52:11 10° SE
Meteor 1-21 Rocket 4.3 01:46:48 31° SSW 01:49:27 63° WNW 01:55:04 10° N
STARLINK-1235 2.7 01:46:38 10° WNW 01:49:43 70° SW 01:52:48 10° SE
STARLINK-1187 2.6 01:47:03 10° NW 01:50:09 80° SW 01:53:14 10° SE
Cosmos 1898 Rocket 3.6 01:45:21 10° NNW 01:50:43 81° ENE 01:56:01 10° SSE
Cosmos 1656 3.7 01:48:20 30° SSW 01:51:13 76° WNW 01:56:52 10° NNE
STARLINK-1191 2.7 01:48:25 10° NW 01:51:31 89° SW 01:54:37 10° SE
Lacrosse 4 Rocket 3.8 01:48:31 10° N 01:52:12 26° NE 01:55:47 10° ESE
STARLINK-1221 2.7 01:49:17 10° NW 01:52:24 87° SSW 01:55:30 10° SE
CZ-4C R/B 2.3 01:50:43 28° S 01:53:14 57° ESE 01:58:49 10° NE
STARLINK-1222 2.7 01:50:11 10° NW 01:53:17 85° SW 01:56:23 10° SE
STARLINK-1214 2.7 01:51:06 10° NW 01:54:12 83° SW 01:57:17 10° SE
Cosmos 468 Rocket 3.9 01:52:22 31° SSW 01:54:52 76° WNW 02:00:01 10° NNE
SJ 16-02 1.2 01:51:45 10° NNW 01:56:11 75° WSW 01:59:17 19° S
Cosmos 2285 Rocket 4.5 01:49:53 10° NNW 01:56:14 64° ENE 02:02:30 10° SSE
Cosmos 1570 Rocket 4.4 01:53:01 21° S 01:56:28 59° ESE 02:01:41 10° NNE
IDEFIX/ARIANE 42P 4.3 01:51:59 10° NE 01:56:30 28° E 02:00:58 10° SSE
Cosmos 1953 Rocket 3.7 01:54:38 24° S 01:57:15 74° E 02:01:42 10° NNE
Cosmos 2369 3.9 01:55:55 23° S 01:59:29 67° ESE 02:05:06 10° NNE
STARLINK-1197 4.4 01:55:41 10° NW 01:59:45 53° NNE 02:03:49 10° ESE
NOSS 7 (H) 4.1 01:59:33 44° SW 02:00:28 89° ESE 02:03:27 10° NE
Cosmos 1937 Rocket 3.7 01:55:43 10° NNW 02:00:58 72° ENE 02:06:14 10° SSE
Meteor 2-10 Rocket 3.7 01:57:55 10° NNW 02:03:04 52° W 02:06:01 24° SSW
STARLINK-1198 4.3 02:00:38 10° NW 02:04:43 57° NNE 02:08:48 10° ESE
Cosmos 1709 Rocket 4.3 02:01:48 25° SW 02:05:08 49° WNW 02:11:04 10° N
STARLINK-1199 4.1 02:05:38 10° NW 02:09:45 62° NNE 02:13:51 10° ESE
STARLINK-1210 4.0 02:10:35 10° NW 02:14:43 67° NE 02:18:50 10° ESE
Cosmos 1814 Rocket 4.4 02:11:05 16° S 02:15:18 64° ESE 02:20:36 10° NNE
STARLINK-1320 3.8 02:14:52 23° W 02:16:23 40° NNW 02:19:22 10° NE
STARLINK-1322 3.8 02:15:11 23° W 02:16:44 40° NNW 02:19:42 10° NE
STARLINK-1324 3.8 02:15:32 22° W 02:17:05 40° NNW 02:20:03 10° NE
STARLINK-1294 3.9 02:15:47 22° W 02:17:21 40° NNW 02:20:21 10° NE
STARLINK-1261 3.9 02:16:09 22° W 02:17:44 39° NNW 02:20:43 10° NE
STARLINK-1325 3.9 02:16:30 22° W 02:18:06 39° NNW 02:21:04 10° NE
Cosmos 2219 3.7 02:13:02 10° NW 02:18:12 38° WSW 02:22:14 15° SSW
Cosmos 1980 Rocket 2.8 02:13:41 14° S 02:18:24 53° ESE 02:23:52 10° NNE
STARLINK-1333 3.9 02:16:48 21° W 02:18:24 39° NNW 02:21:22 10° NE
STARLINK-1334 3.9 02:17:07 21° W 02:18:44 39° NNW 02:21:42 10° NE
STARLINK-1326 3.9 02:17:28 21° W 02:19:06 38° NNW 02:22:03 10° NE
STARLINK-1323 3.9 02:17:47 21° W 02:19:25 38° NNW 02:22:23 10° NE
STARLINK-1338 3.9 02:17:39 21° W 02:19:38 47° NNW 02:23:00 10° NE
STARLINK-1219 3.8 02:15:33 10° NW 02:19:42 72° NE 02:23:50 10° ESE
STARLINK-1349 3.9 02:18:06 21° W 02:19:45 38° NNW 02:22:43 10° NE
STARLINK-1336 3.9 02:18:28 20° W 02:20:08 38° NNW 02:23:05 10° NE
STARLINK-1331 4.0 02:18:45 20° W 02:20:27 38° NNW 02:23:23 10° NE
STARLINK-1344 4.0 02:19:05 20° W 02:20:47 37° NNW 02:23:44 10° NE
STARLINK-1343 4.0 02:19:25 20° W 02:21:08 37° NNW 02:24:04 10° NE
Cosmos 1328 4.3 02:19:18 25° SW 02:21:12 42° WNW 02:25:00 10° N
STARLINK-1346 4.0 02:19:43 20° W 02:21:29 37° NNW 02:24:28 10° NE
Cosmos 858 Rocket 4.4 02:16:21 10° NNW 02:21:38 76° WSW 02:26:53 10° SSE
STARLINK-1328 4.0 02:20:05 19° W 02:21:50 37° NNW 02:24:46 10° NE
STARLINK-1354 4.0 02:20:22 19° W 02:22:08 36° NNW 02:25:04 10° NE
STARLINK-1347 4.0 02:20:44 19° W 02:22:30 36° NNW 02:25:26 10° NE
STARLINK-1357 4.0 02:21:01 19° W 02:22:49 36° NNW 02:25:45 10° NE
STARLINK-1335 4.0 02:21:22 19° W 02:23:10 36° NNW 02:26:06 10° NE
ERS-2 2.1 02:19:35 10° SSE 02:23:13 85° E 02:26:55 10° NNW
STARLINK-1327 4.0 02:21:41 19° W 02:23:29 36° NNW 02:26:25 10° NE
STARLINK-1371 4.0 02:21:31 19° W 02:23:40 44° NNW 02:27:02 10° NE
STARLINK-1340 4.1 02:22:01 18° W 02:23:51 35° NNW 02:26:46 10° NE
STARLINK-1356 4.1 02:22:21 18° W 02:24:11 35° NNW 02:27:06 10° NE
STARLINK-1345 4.1 02:22:41 18° W 02:24:32 35° NNW 02:27:27 10° NE
STARLINK-1211 3.7 02:20:31 10° NW 02:24:40 79° NE 02:28:48 10° ESE
STARLINK-1355 4.1 02:22:59 18° W 02:24:52 35° NNW 02:27:47 10° NE
STARLINK-1321 4.1 02:23:18 18° W 02:25:11 35° NNW 02:28:06 10° NE
STARLINK-1358 4.1 02:23:39 17° W 02:25:33 34° NNW 02:28:28 10° NE
STARLINK-1341 4.1 02:23:29 18° W 02:25:44 42° NNW 02:29:05 10° NE
STARLINK-1332 4.1 02:23:57 17° W 02:25:52 34° NNW 02:28:46 10° NE
STARLINK-1348 4.1 02:24:18 17° W 02:26:14 34° NNW 02:29:08 10° NE
STARLINK-1330 4.1 02:24:36 17° W 02:26:33 34° NNW 02:29:27 10° NE
STARLINK-1363 4.2 02:24:56 17° W 02:26:53 34° NNW 02:29:47 10° NE
STARLINK-1337 4.2 02:25:15 17° W 02:27:13 34° NNW 02:30:07 10° NE
STARLINK-1342 4.2 02:25:35 16° W 02:27:34 33° NNW 02:30:28 10° NE
STARLINK-1374 4.1 02:25:26 17° W 02:27:47 41° NNW 02:31:08 10° NE
STARLINK-1364 4.2 02:25:55 16° W 02:27:55 33° NNW 02:30:48 10° NE
STARLINK-1376 4.2 02:26:15 16° W 02:28:16 33° NNW 02:31:09 10° NE
CSL-04 DEB 4.5 02:24:16 10° S 02:28:26 66° WSW 02:32:45 10° NNW
STARLINK-1360 4.2 02:26:30 16° W 02:28:32 33° NNW 02:31:25 10° NE
STARLINK-1361 4.2 02:26:56 16° W 02:28:59 33° NNW 02:31:51 10° NE
STARLINK-1367 4.2 02:27:10 16° W 02:29:15 33° NNW 02:32:10 10° NE
IRS-1C 4.3 02:24:02 10° N 02:29:17 59° WNW 02:33:25 16° SSW
STARLINK-1366 4.2 02:27:33 16° W 02:29:37 32° NNW 02:32:29 10° NE
STARLINK-1245 3.6 02:25:30 10° NW 02:29:40 85° NE 02:33:49 10° SE
STARLINK-1339 4.2 02:27:27 16° W 02:29:52 40° NNW 02:33:12 10° NE
SL-4 R/B 4.2 02:26:52 10° WNW 02:31:00 28° N 02:34:59 10° NE
STARLINK-1377 4.2 02:29:28 15° W 02:31:58 38° NNW 02:35:18 10° NE
Cosmos 2297 Rocket 2.8 02:28:39 10° NW 02:33:43 35° WSW 02:38:46 10° SSW
STARLINK-1353 4.3 02:31:17 15° W 02:33:50 37° NNW 02:37:07 10° NE
STARLINK-1233 3.6 02:30:28 10° NW 02:34:38 88° SSW 02:38:46 10° SE
STARLINK-1375 4.3 02:33:04 14° W 02:35:43 36° NNW 02:38:59 10° NE
Cosmos 540 Rocket 3.4 02:32:23 16° SSW 02:36:33 77° WNW 02:41:43 10° NNE
Cosmos 2082 3.7 02:31:59 10° NNW 02:37:36 66° WSW 02:43:09 10° SSE
STARLINK-1350 4.4 02:35:22 13° W 02:38:07 35° NNW 02:41:22 10° NE
STARLINK-1204 3.5 02:35:28 10° NW 02:39:38 81° SW 02:43:45 10° SE
Landsat 5 4.0 02:35:37 10° SSE 02:40:04 72° ENE 02:44:36 10° N
STARLINK-1352 4.5 02:37:40 12° W 02:40:34 34° NNW 02:43:49 10° NE
Cosmos 2278 3.7 02:36:08 14° SSW 02:41:02 83° WNW 02:46:44 10° NNE
Meteor 1-11 4.4 02:38:11 13° SSW 02:43:04 57° WNW 02:48:36 10° N
Meteor 1-28 Rocket 3.3 02:39:22 10° S 02:43:05 56° W 02:46:49 10° NNW
Cosmos 1455 4.0 02:40:55 10° NW 02:43:09 15° W 02:44:16 14° WSW
SL-16 R/B 4.1 02:41:06 13° WSW 02:43:30 16° W 02:47:06 10° NW
CZ-2D R/B 3.4 02:39:32 10° N 02:43:40 74° WNW 02:47:41 11° SSW
STARLINK-1238 3.5 02:40:26 10° NW 02:44:34 75° SW 02:48:41 10° SE
USA 234 3.6 02:38:21 10° NE 02:44:48 59° SE 02:51:06 11° SSW
Cosmos 489 Rocket 4.5 02:39:53 10° SSW 02:46:01 89° ESE 02:52:19 10° NNE
Cosmos 2074 Rocket 4.2 02:40:25 11° SSW 02:46:24 60° W 02:52:38 10° N
IRIDIUM 106 4.4 02:41:52 10° S 02:47:04 81° E 02:52:19 10° N
ATLAS CENTAUR R/B 3.1 02:44:20 10° WNW 02:48:01 42° SW 02:56:36 10° SSE
Cosmos 841 Rocket 3.8 02:44:27 14° SW 02:48:54 56° WNW 02:54:04 10° NNE
Cosmos 2322 Rocket 4.3 02:44:57 10° SSE 02:49:16 23° E 02:53:33 10° NE
Cosmos 2263 Rocket 3.8 02:44:18 10° N 02:49:33 38° ENE 02:54:43 10° SE
STARLINK-1201 3.5 02:45:26 10° WNW 02:49:33 68° SW 02:53:39 10° SE
Cosmos 372 Rocket 4.0 02:46:09 10° NNW 02:51:18 88° ENE 02:56:27 10° SSE
Cosmos 1892 3.8 02:48:51 10° SSE 02:52:30 44° E 02:56:10 10° NNE
COBE Rocket 4.2 02:48:21 10° S 02:53:05 50° W 02:57:59 10° NNW
STARLINK-1206 3.6 02:50:25 10° WNW 02:54:31 62° SW 02:58:36 10° SE
Cosmos-2242 4.5 02:51:42 10° NW 02:54:46 19° W 02:57:21 12° SW
Cosmos 1869 3.5 02:51:44 10° N 02:55:38 73° E 02:59:29 10° SSE
Cosmos 1400 Rocket 3.3 02:52:17 10° NNW 02:56:11 42° W 03:00:04 10° SSW
Cosmos 2221 2.5 02:52:42 10° N 02:57:03 88° E 03:01:23 10° S
Cosmos 2184 Rocket 4.3 02:52:00 10° SSW 02:57:58 50° WNW 03:03:58 10° N
SL-08 R/B 4.2 02:54:33 10° SSW 02:58:40 30° W 03:02:46 10° NW
CZ-4C R/B 3.1 02:55:32 10° S 02:59:02 57° W 03:02:38 10° NNW
STARLINK-1205 3.7 02:55:25 10° WNW 02:59:29 56° SW 03:03:32 10° SE
STARLINK-1218 3.8 03:00:24 10° WNW 03:04:26 51° SW 03:08:26 10° SSE
Cosmos 2227 Rocket 3.4 03:04:55 10° NW 03:09:02 21° W 03:13:08 10° SSW
STARLINK-1254 3.9 03:05:25 10° WNW 03:09:24 46° SW 03:13:22 10° SSE
Cosmos 1697 Rocket 3.7 03:05:04 10° WSW 03:10:09 34° WNW 03:15:18 10° N
ADEOS II 3.6 03:06:29 10° NNW 03:10:24 22° WNW 03:14:21 10° WSW
Cosmos 2150 Rocket 3.9 03:08:07 10° NNW 03:13:20 79° WSW 03:18:27 10° SSE
STARLINK-1231 4.0 03:10:27 10° WNW 03:14:22 42° SW 03:18:17 10° SSE
SL-16 R/B 3.2 03:10:26 10° S 03:15:48 46° ESE 03:21:13 10° NE
Cosmos 1315 Rocket 2.7 03:12:22 10° NNW 03:16:17 71° W 03:20:10 10° S
CZ-2C R/B 3.2 03:14:01 10° N 03:17:32 42° WNW 03:21:04 10° SW
MSX 3.9 03:12:49 10° NNE 03:18:37 81° WNW 03:24:21 10° SSW
SAR-Lupe-4 3.5 03:15:35 10° S 03:19:10 77° WSW 03:22:46 10° NNW
STARLINK-1232 4.1 03:15:29 10° WNW 03:19:20 38° SW 03:23:10 10° SSE
H-2A R/B 2.9 03:15:42 10° SSW 03:19:31 31° W 03:23:27 10° NNW
